Simultaneous Nadir Overpasses (SNOs) Predictions

Prediction of SNOs between METOP-B and NOAA-19 Satellite Orbit:

Table of predicted SNOs for the next 14.0 days since TLE Epoch: 1/2/2021
Index Date (METOP-B) Time (METOP-B) Lat,Lon (METOP-B) SZA (METOP-B ) Date (NOAA-19) Time (NOAA-19) Lat,Lon (NOAA-19) SZA (NOAA-19 ) Distance(km) Time Diff (sec)
1 01/06/2021 21:10:09 -80.33, 68.41 76.52 01/06/2021 21:08:54 -80.34, 68.57 76.53 3.17 75
2 01/06/2021 22:00:50 80.33,-124.34 103.47 01/06/2021 21:59:58 80.34,-124.21 103.48 2.96 52
3 01/06/2021 22:51:30 -80.35, 43.27 76.50 01/06/2021 22:50:54 -80.33, 43.22 76.53 2.01 36
4 01/06/2021 23:42:11 80.34,-149.48 103.49 01/06/2021 23:41:58 80.33,-149.55 103.47 1.79 13
5 01/07/2021 00:32:52 -80.34, 17.81 76.53 01/07/2021 00:32:54 -80.32, 17.87 76.54 2.00 2
6 01/07/2021 01:23:33 80.33,-174.94 103.46 01/07/2021 01:23:58 80.32,-174.90 103.46 1.20 25
7 01/07/2021 02:14:14 -80.33, -7.65 76.56 01/07/2021 02:14:55 -80.33, -7.82 76.55 3.18 41
8 01/07/2021 03:04:55 80.32, 159.60 103.43 01/07/2021 03:05:58 80.31, 159.75 103.45 2.94 63



Historial Predications of SNOs between METOP-B and NOAA-19
